ISS DEB (SEDA-AP) (43870 NORAD) Tracking and Keplerian Element Data

This shows tracking and keplerian element data for the satellite.

Feedback or suggestion? Click here.




ElementValue
Catalog43870
NameISS DEB (SEDA-AP)
Epoch Orbit13572
Epoch Day130.67669988
Epoch Year2021
RAAN121.7427
Inclination51.6345
Eccentricity0.0003054
Argument of Perigee175.6653
Mean Anonmoly184.4368
Mean Motion15.61884617
Decay Rate4.817E-05
L11 43870U 98067PU 21130.67669988 .00004817 00000-0 60291-4 0 9990
L22 43870 51.6345 121.7427 0003054 175.6653 184.4368 15.61884617135726

Live tracking and technical data element details for ISS DEB (SEDA-AP) (NORAD 43870). ISS DEB (SEDA-AP) can be tracked NOW for your location showing map with azimuth and elevation plus other details from your city location.

Track the satellite on the map from your city or location and see movement details for azimuth, elevation, latitude, longitude, range, height, and movement on the map or in text.







IsCatalogInMostPopularTable: catalog: 43870, numindb: 25167
Update: records affected: 1



GetName: 43870 ISS DEB (SEDA-AP)

Hit Count: updated at: Tue, 11 May 2021 18:56:06 GMT